Location: downtown San Diego
(32.7310°N, 117.1990°W)
Time: 09:43:28
(UTC-08:00)

Lacrosse 5 rocket - Pass Details

Date: 12 July 2018
Orbit: 459 x 640 km, 57.0° (Epoch: 18 November)

Event Time Altitude Azimuth Distance (km) Brightness Sun altitude
Exits shadow 23:48:41 - 277° (W) 2,414 4.9 -33.2°
Reaches altitude 10° 23:51:19 10° 304° (NW) 1,858 4.5 -33.4°
Maximum altitude 23:52:52 12° 326° (NW) 1,768 4.6 -33.5°
Drops below altitude 10° 23:54:27 10° 348° (NNW) 1,902 4.9 -33.6°
Sets 23:58:17 0° 20° (NNE) 2,854 5.7 -33.8°
